Torna al catalogo

COSMOS 2251 DEB

AttivoLEO
NORAD 35439·DEBRIS·🇷🇺 Russia

Lanciato Jun 16, 1993 da Plesetsk Cosmodrome

Loading…

Prossimi Passaggi (prossime 24 ore)

TLE

AggiornatoSource: Space-Track

Epoca: Sep 13, 2026, 15:19 UTC

1 35439U 93036AKH 26256.63828933  .00001775  00000-0  10752-2 0  9995
2 35439  74.0199  23.1929 0238263 130.5870 231.6265 13.93950836877903

Traccia COSMOS 2251 DEB in tempo reale con AllMySat

Download on the App Store